Seminole, TX

1:31 PM CST on November 13, 2019 (GMT -0600)
Seminole

Weather History for KGNC - October, 2019

Change the Weather History Date:

Saturday, October 19, 2019

  Actual Average (KHOB) Record (KHOB)
Temperature  
Mean Temperature 62 °F -  
Max Temperature 74 °F 73 °F 89 °F (2003)
Min Temperature 50 °F 47 °F 32 °F (2013)
Degree Days  
Heating Degree Days 3    
Growing Degree Days 12 (Base 50)    
Moisture  
Dew Point 37 °F    
Average Humidity 44    
Maximum Humidity 73    
Minimum Humidity 21    
Precipitation  
Precipitation 0.00 in - - ()
Sea Level Pressure  
Sea Level Pressure 29.95 in    
Wind  
Wind Speed 7 mph (NW)    
Max Wind Speed 15 mph    
Max Gust Speed 22 mph    
Visibility 10 miles    
Events      
Averages and records for this station are not official NWS values.
T = Trace of Precipitation, MM = Missing Value Source: NWS Daily Summary

Daily Weather History Graph

Daily Weather History Graph

Search for Another Location

Airport or City:

Astronomy

Oct. 19, 2019 Rise Set
Actual Time 7:57 AM CDT 7:13 PM CDT
Civil Twilight 7:32 AM CDT 7:38 PM CDT
Nautical Twilight 7:03 AM CDT 8:06 PM CDT
Astronomical Twilight 6:35 AM CDT 8:35 PM CDT
Moon 11:37 PM CDT (10/19) 1:18 PM CDT (10/19)
Length of Visible Light 12h 05m
Length of Day
11h 15m
Waning Gibbous, 69% of the Moon is Illuminated
Oct 19
Waning Gibbous
Oct 21
Last Quarter
Oct 27
New
Nov 4
First Quarter
Nov 12
Full

Hourly Weather History & Observations

Time (CDT) Temp. Dew Point Humidity Pressure Visibility Wind Dir Wind Speed Gust Speed Precip Events Conditions
12:15 AM 58.3 °F 43.7 °F 58% 29.85 in 10.0 mi West 8.1 mph - N/A   Clear
12:35 AM 57.0 °F 43.7 °F 61% 29.85 in 10.0 mi West 6.9 mph - N/A   Clear
12:55 AM 56.8 °F 43.7 °F 61% 29.85 in 10.0 mi West 8.1 mph - N/A   Clear
1:15 AM 57.7 °F 43.9 °F 60% 29.85 in 10.0 mi West 9.2 mph - N/A   Clear
1:35 AM 57.0 °F 43.7 °F 61% 29.86 in 10.0 mi West 8.1 mph - N/A   Clear
1:55 AM 55.6 °F 43.7 °F 64% 29.86 in 10.0 mi West 5.8 mph - N/A   Clear
2:15 AM 53.2 °F 43.2 °F 69% 29.87 in 10.0 mi WNW 3.5 mph - N/A   Clear
2:35 AM 51.4 °F 43.0 °F 73% 29.87 in 10.0 mi West 6.9 mph - N/A   Clear
2:55 AM 51.8 °F 43.2 °F 72% 29.88 in 10.0 mi West 8.1 mph - N/A   Clear
3:15 AM 52.5 °F 43.3 °F 71% 29.89 in 10.0 mi West 8.1 mph - N/A   Clear
3:35 AM 54.0 °F 43.0 °F 66% 29.89 in 10.0 mi WNW 6.9 mph - N/A   Clear
3:55 AM 53.8 °F 42.8 °F 66% 29.89 in 10.0 mi WNW 9.2 mph - N/A   Clear
4:15 AM 53.1 °F 42.8 °F 68% 29.89 in 10.0 mi WNW 6.9 mph - N/A   Clear
4:35 AM 53.6 °F 42.8 °F 67% 29.89 in 10.0 mi WNW 8.1 mph - N/A   Clear
4:55 AM 54.9 °F 42.4 °F 63% 29.89 in 10.0 mi WNW 8.1 mph - N/A   Clear
5:15 AM 55.8 °F 42.1 °F 60% 29.91 in 10.0 mi NNW 10.4 mph - N/A   Clear
5:35 AM 56.3 °F 41.2 °F 57% 29.92 in 10.0 mi NNW 8.1 mph - N/A   Clear
5:55 AM 56.3 °F 39.4 °F 53% 29.93 in 10.0 mi North 12.7 mph - N/A   Clear
6:15 AM 55.6 °F 38.3 °F 52% 29.94 in 10.0 mi North 10.4 mph 16.1 mph N/A   Clear
6:35 AM 55.0 °F 37.6 °F 52% 29.95 in 10.0 mi North 9.2 mph - N/A   Clear
6:55 AM 54.7 °F 37.6 °F 53% 29.96 in 10.0 mi North 9.2 mph 16.1 mph N/A   Clear
7:15 AM 53.4 °F 37.6 °F 55% 29.96 in 10.0 mi NNW 5.8 mph - N/A   Clear
7:35 AM 52.5 °F 37.4 °F 56% 29.97 in 10.0 mi NNW 5.8 mph - N/A   Clear
7:55 AM 50.9 °F 37.4 °F 60% 29.97 in 10.0 mi NNW 5.8 mph - N/A   Clear
8:15 AM 50.2 °F 37.6 °F 62% 29.98 in 10.0 mi NNW 6.9 mph - N/A   Clear
8:35 AM 50.2 °F 37.8 °F 62% 29.99 in 10.0 mi NNW 8.1 mph - N/A   Clear
8:55 AM 53.6 °F 37.6 °F 55% 30.00 in 10.0 mi NNW 10.4 mph 16.1 mph N/A   Clear
9:15 AM 55.8 °F 37.4 °F 50% 30.01 in 10.0 mi North 12.7 mph - N/A   Clear
9:35 AM 57.2 °F 37.8 °F 48% 30.02 in 10.0 mi North 11.5 mph 21.9 mph N/A   Clear
9:55 AM 58.8 °F 37.8 °F 46% 30.03 in 10.0 mi North 13.8 mph 17.3 mph N/A   Clear
10:35 AM 61.3 °F 37.4 °F 41% 30.04 in 10.0 mi NNE 12.7 mph 18.4 mph N/A   Clear
10:55 AM 62.1 °F 37.0 °F 39% 30.03 in 10.0 mi NNE 15.0 mph - N/A   Clear
11:15 AM 63.7 °F 37.6 °F 38% 30.04 in 10.0 mi North 11.5 mph - N/A   Clear
11:35 AM 64.8 °F 37.0 °F 36% 30.03 in 10.0 mi NE 11.5 mph - N/A   Clear
11:55 AM 65.5 °F 37.0 °F 35% 30.03 in 10.0 mi NNE 9.2 mph - N/A   Clear
12:15 PM 67.1 °F 38.1 °F 34% 30.03 in 10.0 mi NNE 9.2 mph 16.1 mph N/A   Clear
12:35 PM 67.5 °F 37.4 °F 33% 30.03 in 10.0 mi NNE 8.1 mph - N/A   Clear
12:55 PM 68.4 °F 37.6 °F 32% 30.02 in 10.0 mi NNE 6.9 mph - N/A   Clear
1:15 PM 69.3 °F 37.2 °F 31% 30.01 in 10.0 mi North 8.1 mph - N/A   Clear
1:35 PM 70.0 °F 36.7 °F 30% 30.01 in 10.0 mi North 5.8 mph - N/A   Clear
1:55 PM 70.9 °F 35.8 °F 28% 30.00 in 10.0 mi North 5.8 mph - N/A   Clear
2:15 PM 70.3 °F 35.1 °F 27% 29.99 in 10.0 mi North 3.5 mph - N/A   Clear
2:35 PM 71.8 °F 34.9 °F 26% 29.97 in 10.0 mi Calm Calm - N/A   Clear
2:55 PM 72.7 °F 35.2 °F 25% 29.97 in 10.0 mi NE 3.5 mph - N/A   Clear
3:15 PM 72.9 °F 34.7 °F 25% 29.96 in 10.0 mi North 4.6 mph - N/A   Clear
3:35 PM 73.4 °F 34.2 °F 24% 29.96 in 10.0 mi Calm Calm - N/A   Clear
3:55 PM 73.6 °F 34.2 °F 24% 29.96 in 10.0 mi Calm Calm - N/A   Clear
4:15 PM 73.9 °F 33.6 °F 23% 29.95 in 10.0 mi Calm Calm - N/A   Clear
4:35 PM 74.1 °F 33.8 °F 23% 29.95 in 10.0 mi SSE 4.6 mph - N/A   Clear
4:55 PM 73.9 °F 33.1 °F 22% 29.94 in 10.0 mi SW 3.5 mph - N/A   Clear
5:15 PM 74.3 °F 32.0 °F 21% 29.94 in 10.0 mi West 3.5 mph - N/A   Clear
5:35 PM 73.8 °F 31.3 °F 21% 29.94 in 10.0 mi Calm Calm - N/A   Clear
5:55 PM 73.8 °F 32.0 °F 22% 29.94 in 10.0 mi Calm Calm - N/A   Clear
6:15 PM 73.0 °F 32.0 °F 22% 29.94 in 10.0 mi SW 3.5 mph - N/A   Clear
6:35 PM 72.1 °F 32.4 °F 23% 29.94 in 10.0 mi Calm Calm - N/A   Clear
6:55 PM 70.7 °F 32.9 °F 25% 29.94 in 10.0 mi Calm Calm - N/A   Clear
7:15 PM 69.6 °F 33.3 °F 26% 29.94 in 10.0 mi Calm Calm - N/A   Clear
7:35 PM 68.0 °F 33.8 °F 28% 29.94 in 10.0 mi Calm Calm - N/A   Clear
7:55 PM 66.7 °F 34.0 °F 30% 29.94 in 10.0 mi SW 3.5 mph - N/A   Clear
8:15 PM 66.0 °F 33.1 °F 29% 29.94 in 10.0 mi SW 3.5 mph - N/A   Clear
8:35 PM 61.9 °F 34.7 °F 36% 29.94 in 10.0 mi Calm Calm - N/A   Clear
8:55 PM 62.6 °F 33.1 °F 33% 29.94 in 10.0 mi South 4.6 mph - N/A   Clear
9:15 PM 60.8 °F 36.0 °F 40% 29.94 in 10.0 mi Calm Calm - N/A   Clear
9:35 PM 58.3 °F 34.9 °F 41% 29.94 in 10.0 mi Calm Calm - N/A   Clear
9:55 PM 57.2 °F 35.4 °F 44% 29.94 in 10.0 mi Calm Calm - N/A   Clear
10:15 PM 56.8 °F 34.7 °F 43% 29.94 in 10.0 mi Calm Calm - N/A   Clear
10:35 PM 54.1 °F 35.1 °F 49% 29.94 in 10.0 mi Calm Calm - N/A   Clear
10:55 PM 55.9 °F 34.2 °F 44% 29.94 in 10.0 mi Calm Calm - N/A   Clear
11:15 PM 54.0 °F 35.6 °F 50% 29.94 in 10.0 mi Calm Calm - N/A   Clear
11:35 PM 55.4 °F 34.7 °F 46% 29.93 in 10.0 mi South 4.6 mph - N/A   Clear